Cloud_Cover
100 100 100 100 100 100 100 100 100 100 100 98 91 100 100 71 100 100 99 99 72 8 5 5 5 8 100 100 19 5 5 5 5 5 5 28 99 100 99 93 100 100 100
100 100 100 100 100 100 100 100 100 100 100 100 100 100 100 100 100 100 100 100 100 76 22 20 5 6 5 44 44 5 6 5 5 58 5 51 100 100 100 100 100 100 100
100 100 100 100 100 100 100 100 100 100 100 100 100 100 100 100 100 99 100 100 100 100 99 6 17 5 5 92 88 77 63 59 15 15 73 99 77 92 100 79 98 100 100
100 100 100 100 100 100 100 100 100 100 100 100 98 100 100 99 100 72 100 100 100 100 99 79 100 99 100 100 62 5 18 14 5 5 49 83 96 77 86 92 96 100 100
100 100 100 100 100 100 100 100 100 100 100 100 100 100 100 100 100 100 100 100 100 100 100 100 99 66 8 70 100 72 5 5 7 39 49 96 94 65 97 100 100 100 100
100 100 100 100 100 100 100 100 100 100 100 100 100 100 100 100 100 100 100 100 100 100 100 100 100 100 96 53 67 12 10 9 5 5 5 7 26 100 100 100 100 100 100
100 100 100 100 100 100 100 100 100 100 87 100 100 100 100 56 97 90 58 29 82 100 100 89 38 95 94 100 94 82 53 6 5 62 57 43 54 97 53 90 60 98 100
100 100 100 100 100 100 100 100 100 100 100 100 100 36 76 43 100 100 98 70 99 100 55 86 50 8 68 79 40 16 10 34 83 99 89 50 54 94 100 100 99 28 91
60 100 100 100 100 100 100 100 100 100 98 100 100 100 100 99 100 100 100 99 86 74 32 16 56 38 5 5 5 5 5 5 71 87 100 100 47 70 75 93 61 70 89
100 100 100 76 55 89 95 100 100 100 100 100 94 86 92 99 100 7 5 5 95 93 22 5 5 6 6 5 76 14 5 5 5 71 100 100 62 72 68 50 8 98 98
100 88 85 34 95 96 100 100 100 100 100 100 66 8 33 72 30 5 5 5 5 8 55 56 27 13 5 8 21 71 96 66 33 51 91 29 31 92 98 92 93 88 15
53 78 99 24 51 56 42 59 26 8 27 41 16 8 39 64 15 5 21 15 5 5 5 5 5 5 0 2 2 0 0 8 29 5 5 5 5 7 58 94 91 69 99
100 99 87 100 100 100 100 100 100 100 100 100 100 95 5 4 5 5 5 4 2 5 5 5 0 0 0 0 0 0 0 0 0 0 0 0 0 5 2 99 100 99 99
63 70 86 85 94 93 76 6 5 5 5 4 2 0 0 0 0 0 0 0 0 0 0 0 0 0 0 0 0 0 0 0 0 0 0 0 0 0 4 1 19 90 100
38 0 0 0 0 0 0 0 0 0 0 0 0 0 0 0 0 0 0 0 0 0 0 0 0 0 0 0 0 0 0 0 0 0 0 0 0 0 0 0 0 3 14
20 0 0 0 0 0 0 0 0 0 0 0 0 0 0 0 0 0 0 0 0 0 0 0 0 0 0 0 0 0 0 0 0 0 0 0 0 0 0 0 0 0 0
5 0 0 0 0 0 0 0 0 0 0 0 0 0 0 0 0 0 0 0 0 0 0 0 0 0 0 0 0 0 0 0 0 0 0 0 0 0 0 0 0 0 0
1 1 1 1 0 0 0 0 0 0 0 0 0 0 0 0 0 0 0 0 0 0 0 0 0 0 0 0 0 0 0 0 0 0 0 0 0 0 0 0 0 0 0
5 5 5 4 0 0 0 0 0 0 0 0 0 0 0 0 0 0 0 0 0 0 0 0 0 0 0 0 0 0 0 0 0 0 0 0 0 0 0 0 0 0 0
3 3 0 0 0 1 0 0 0 2 0 0 0 0 0 0 0 0 0 0 0 0 0 0 0 0 0 0 0 0 0 0 0 0 0 1 0 0 0 12 0 0 0
2 0 0 3 5 5 5 5 5 5 5 4 0 0 0 0 0 0 0 0 0 0 0 0 0 0 0 0 0 0 0 0 0 0 0 1 1 2 0 0 0 0 0
5 2 2 5 5 5 36 5 5 5 5 5 5 0 0 0 0 0 0 0 0 0 0 0 0 0 0 0 0 0 0 0 0 0 0 0 0 0 0 0 0 0 0
5 5 5 5 5 5 5 7 12 5 34 35 5 3 0 1 0 0 0 0 0 0 0 0 0 0 0 0 0 0 0 1 0 0 0 0 0 0 0 0 0 0 0
5 5 5 5 5 5 5 7 9 26 5 1 0 0 0 0 0 0 0 0 0 0 0 0 0 2 0 0 4 0 0 0 0 0 0 0 0 0 0 0 0 0 0
5 24 5 5 5 5 5 5 3 2 5 0 0 0 0 0 0 0 0 3 9 7 57 16 2 0 0 0 5 0 0 0 0 2 0 0 0 0 3 0 0 0 0
5 5 1 5 5 5 4 0 0 0 3 2 0 0 0 0 0 0 2 5 5 3 0 3 1 5 4 0 0 0 0 4 5 5 5 2 0 0 0 0 0 0 0